Indianapolis, IN

7:29 PM EDT on September 16, 2019 (GMT -0400)
Indianapolis International

Weather History for KIND - July, 2019

Change the Weather History Date:

Wednesday, July 17, 2019

  Actual Average Record
Temperature  
Mean Temperature 82 °F 76 °F  
Max Temperature 90 °F 85 °F 101 °F (2012)
Min Temperature 74 °F 66 °F 51 °F (1976)
Degree Days  
Heating Degree Days 0 0  
Month to date heating degree days 0 0  
Since 1 June heating degree days 9 16  
Since 1 July heating degree days 0 0  
Cooling Degree Days 17 11  
Month to date cooling degree days 249 184  
Year to date cooling degree days 563 494  
Since 1 June cooling degree days 452 410  
Growing Degree Days 32 (Base 50)    
Moisture  
Dew Point 73 °F    
Average Humidity 78    
Maximum Humidity 100    
Minimum Humidity 56    
Precipitation  
Precipitation 1.10 in 0.15 in 3.71 in (1872)
Month to date precipitation 2.33 2.69  
Year to date precipitation 31.48 24.34  
Snow  
Snow 0.00 in 0.00 in 0.00 in ()
Month to date snowfall 0.0 0.0  
Since 1 June snowfall 0.0 0.0  
Since 1 July snowfall 0.0 0.0  
Snow Depth 0.00 in    
Sea Level Pressure  
Sea Level Pressure 29.90 in    
Wind  
Wind Speed 9 mph (West)    
Max Wind Speed 16 mph    
Max Gust Speed 21 mph    
Visibility 8 miles    
Events Rain , Thunderstorm    
T = Trace of Precipitation, MM = Missing Value Source: NWS Daily Summary

Daily Weather History Graph

Daily Weather History Graph

Search for Another Location

Airport or City:

Astronomy

Jul. 17, 2019 Rise Set
Actual Time 6:31 AM EDT 9:11 PM EDT
Civil Twilight 5:59 AM EDT 9:42 PM EDT
Nautical Twilight 5:20 AM EDT 10:21 PM EDT
Astronomical Twilight 4:35 AM EDT 11:06 PM EDT
Moon 9:59 PM EDT (7/17) 7:03 AM EDT (7/17)
Length of Visible Light 15h 42m
Length of Day
14h 39m
Waxing Gibbous, 99% of the Moon is Illuminated
Jul 17
Waxing Gibbous
Jul 24
Last Quarter
Jul 31
New
Aug 7
First Quarter
Aug 15
Full

Hourly Weather History & Observations

Time (EDT) Temp. Heat Index Dew Point Humidity Pressure Visibility Wind Dir Wind Speed Gust Speed Precip Events Conditions
12:41 AM 73.9 °F - 73.0 °F 97% 29.89 in 4.0 mi South 6.9 mph - 0.03 in Rain Light Rain
12:54 AM 73.9 °F - 73.0 °F 97% 29.87 in 10.0 mi SSW 10.4 mph - 0.04 in   Overcast
1:54 AM 73.9 °F - 73.9 °F 100% 29.86 in 10.0 mi SSW 8.1 mph - 0.02 in   Overcast
2:38 AM 73.9 °F - 73.9 °F 100% 29.88 in 1.8 mi WSW 11.5 mph - 0.04 in Rain Heavy Rain
2:49 AM 73.4 °F - 73.4 °F 100% 29.87 in 3.0 mi SW 5.8 mph - 0.37 in Rain , Thunderstorm Light Thunderstorms and Rain
2:54 AM 73.9 °F - 73.0 °F 97% 29.86 in 3.0 mi WNW 5.8 mph - 0.49 in Rain , Thunderstorm Light Thunderstorms and Rain
3:18 AM 73.9 °F - 73.0 °F 97% 29.87 in 10.0 mi West 8.1 mph - 0.30 in Rain Light Rain
3:54 AM 73.9 °F - 73.9 °F 100% 29.86 in 10.0 mi WSW 9.2 mph - 0.31 in   Overcast
4:54 AM 73.9 °F - 73.9 °F 100% 29.86 in 10.0 mi WSW 8.1 mph - 0.00 in   Overcast
5:54 AM 75.0 °F - 73.9 °F 96% 29.87 in 10.0 mi West 10.4 mph - 0.00 in   Overcast
6:44 AM 75.0 °F - 73.9 °F 96% 29.90 in 1.0 mi West 8.1 mph - 0.00 in Rain Heavy Rain
6:54 AM 73.9 °F - 73.9 °F 100% 29.88 in 3.0 mi WSW 9.2 mph - 0.23 in Rain Light Rain
7:14 AM 75.0 °F - 73.9 °F 96% 29.90 in 10.0 mi WNW 6.9 mph - 0.05 in Rain Light Rain
7:49 AM 75.2 °F - 73.4 °F 94% 29.91 in 5.0 mi West 5.8 mph - 0.05 in   Mostly Cloudy
7:54 AM 75.0 °F - 73.9 °F 96% 29.89 in 5.0 mi West 5.8 mph - 0.05 in   Mostly Cloudy
8:12 AM 75.0 °F - 73.9 °F 96% 29.92 in 6.0 mi WNW 6.9 mph - N/A   Mostly Cloudy
8:54 AM 77.0 °F - 73.9 °F 90% 29.91 in 6.0 mi WNW 8.1 mph - N/A   Mostly Cloudy
9:28 AM 78.1 °F - 73.9 °F 87% 29.94 in 8.0 mi West 5.8 mph - 0.00 in Rain Light Rain
9:54 AM 79.0 °F - 73.0 °F 82% 29.93 in 10.0 mi NW 11.5 mph - 0.00 in   Mostly Cloudy
10:33 AM 80.1 °F 84.2 °F 73.0 °F 79% 29.95 in 10.0 mi West 6.9 mph - N/A   Mostly Cloudy
10:54 AM 81.0 °F 85.8 °F 73.0 °F 77% 29.94 in 10.0 mi WNW 8.1 mph - N/A   Mostly Cloudy
11:54 AM 82.0 °F 87.4 °F 73.0 °F 74% 29.95 in 10.0 mi NW 6.9 mph - N/A   Mostly Cloudy
12:54 PM 84.0 °F 90.2 °F 73.0 °F 69% 29.94 in 10.0 mi West 6.9 mph - N/A   Mostly Cloudy
1:54 PM 86.0 °F 93.0 °F 73.0 °F 65% 29.94 in 10.0 mi West 11.5 mph - N/A   Mostly Cloudy
2:54 PM 87.1 °F 93.6 °F 72.0 °F 61% 29.92 in 10.0 mi WSW 10.4 mph - N/A   Mostly Cloudy
3:54 PM 87.1 °F 93.6 °F 72.0 °F 61% 29.91 in 10.0 mi WNW 9.2 mph - N/A   Mostly Cloudy
4:54 PM 89.1 °F 96.0 °F 72.0 °F 57% 29.90 in 10.0 mi WNW 12.7 mph - N/A   Mostly Cloudy
5:54 PM 89.1 °F 97.0 °F 73.0 °F 59% 29.90 in 10.0 mi West 12.7 mph - N/A   Scattered Clouds
6:54 PM 88.0 °F 94.7 °F 72.0 °F 59% 29.89 in 10.0 mi WNW 12.7 mph - N/A   Mostly Cloudy
7:54 PM 86.0 °F 92.2 °F 72.0 °F 63% 29.91 in 10.0 mi NW 11.5 mph - N/A   Mostly Cloudy
8:54 PM 84.0 °F 90.2 °F 73.0 °F 69% 29.91 in 10.0 mi West 8.1 mph - N/A   Mostly Cloudy
9:54 PM 81.0 °F 86.2 °F 73.9 °F 79% 29.92 in 10.0 mi West 5.8 mph - N/A   Mostly Cloudy
10:54 PM 80.1 °F 84.5 °F 73.9 °F 81% 29.92 in 10.0 mi SSW 4.6 mph - N/A   Mostly Cloudy
11:54 PM 80.1 °F 84.5 °F 73.9 °F 81% 29.92 in 10.0 mi ESE 5.8 mph - N/A   Mostly Cloudy